User: anonymous   Login
Location: Corcelles
(46.1547°N, 4.7234°E)
Time: 22:36:25
(UTC+00:00)
Language:

Cosmos 1437 Rocket - Orbit

View from above orbital plane
View from above orbital plane
View from above satellite
View from above satellite

Ground track
Ground track

The orbit data is extracted from the following two-line orbital elements,

1 13771U 83003B   20270.45255094  .00000706  00000-0  40422-4 0  9997
2 13771  81.1596  62.9143 0041242 354.4047   5.6712 15.10620404 54492
Epoch (UTC): 26 September 2020 10:51:40
Eccentricity: 0.0041242
inclination: 81.1596°
perigee height: 506 km
apogee height: 563 km
right ascension of ascending node: 62.9143°
argument of perigee: 354.4047°
revolutions per day: 15.10620404
mean anomaly at epoch: 5.6712°
orbit number at epoch: 5449

The dashed part of the orbit path shows where the satellite is in the earth's shadow,  

DLR